{"data":{"norad_id":57203,"intl_designator":"2023-091AP","name":"UTMN 2 (RS27S)","alt_names":[],"object_type":"PAYLOAD","status":"ACTIVE","operator":null,"country":"CIS","launch_date":"2023-06-27","launch_site_code":"VOSTO","launch_vehicle":null,"mission":null,"orbit_class":"UNKNOWN","rcs_meters":null,"size_class":null,"mass_kg":null,"dimensions":null,"purposes":["comms"],"wikipedia_slug":null,"has_3d_model":false,"image_url":null,"decayed_at":null,"tle_current":{"epoch":"2026-09-19T21:32:11.692320Z","epoch_age_seconds":66581,"freshness":"FRESH","line1":"1 57203U 23091AP  26262.89735755  .00009125  00000+0  27865-3 0  9996","line2":"2 57203  97.4995 331.5244 0008851 102.3517 257.8717 15.34095890179058","mean_motion":15.3409589,"eccentricity":0.0008851,"inclination_deg":97.4995,"raan_deg":331.5244,"arg_perigee_deg":102.3517,"mean_anomaly_deg":257.8717,"bstar":0.00027865,"rev_number":17905,"period_min":93.866361899972,"perigee_km":457.55164067633,"apogee_km":469.66289638048,"semimajor_km":6841.7442685284,"source":"CELESTRAK","updated_at":"2026-09-20T09:00:45.238897Z"}}}